This demonstration page uses our WeatherBlox Daily Observations layout. Learn more.

Left ArrowRight Arrow

Hourly Observations for August 15, 2021

Temp ( °F °C ) Dew Point ( °F °C ) Humidity (%) Winds ( mph kmh ) Pressure ( in mb ) Visibility ( mi km ) Precip ( " mm )
12:59 am 00:59 Cloudy 75 23.9 72 22.2 90 90 S 5 7 30.12 1020 9 14 0.00 0.00
1:59 am 01:59 Mostly Cloudy 74 23.3 70 21.1 88 88 SSW 5 7 30.13 1020 10 16 0.00 0.00
2:59 am 02:59 Mostly Cloudy 74 23.3 70 21.1 88 88 Calm 30.13 1020 10 16 0.00 0.00
3:59 am 03:59 Mostly Cloudy 74 23.3 71 21.7 91 91 N 6 9 30.13 1020 10 16 0.00 0.00
4:59 am 04:59 Mostly Cloudy 76 24.4 70 21.1 82 82 NE 5 7 30.12 1020 10 16 0.00 0.00
5:59 am 05:59 Mostly Cloudy 73 22.8 71 21.7 94 94 Calm 30.14 1021 9 14 0.00 0.00
6:59 am 06:59 Mostly Cloudy 74 23.3 72 22.2 94 94 Calm 30.15 1021 7 11 0.00 0.00
7:59 am 07:59 Mostly Cloudy 77 25 73 22.8 88 88 Calm 30.16 1021 9 14 0.00 0.00
8:59 am 08:59 Partly Cloudy 81 27.2 71 21.7 72 72 Calm 30.17 1022 10 16 0.00 0.00
9:59 am 09:59 Partly Cloudy 83 28.3 69 20.6 63 63 ENE 6 9 30.17 1022 10 16 0.00 0.00
10:59 am 10:59 Mostly Cloudy 84 28.9 72 22.2 67 67 VRB 6 9 30.18 1022 10 16 0.00 0.00
11:59 am 11:59 Mostly Cloudy 85 29.4 73 22.8 68 68 NE 8 13 30.17 1022 10 16 0.00 0.00
12:59 pm 12:59 Mostly Cloudy 85 29.4 73 22.8 68 68 ENE 10 17 30.16 1021 10 16 0.00 0.00
1:59 pm 13:59 Mostly Cloudy 83 28.3 74 23.3 74 74 ENE 12 19 30.15 1021 10 16 0.00 0.00
2:59 pm 14:59 Mostly Cloudy 84 28.9 73 22.8 70 70 ENE 12 19 30.14 1021 10 16 0.00 0.00
3:59 pm 15:59 Mostly Cloudy 83 28.3 72 22.2 70 70 E 13 20 30.14 1021 10 16 0.00 0.00
4:12 pm 16:12 Cloudy with Thunderstorms 83 28.3 72 22.2 70 70 E 8 13 30.13 1020 10 16 0.00 0.00
4:59 pm 16:59 Cloudy with Thunderstorms 81 27.2 71 21.7 72 72 ENE 8 13 30.11 1020 10 16 0.00 0.00
5:59 pm 17:59 Cloudy 81 27.2 73 22.8 77 77 ENE 6 9 30.13 1020 10 16 0.00 0.00
6:59 pm 18:59 Cloudy 80 26.7 73 22.8 79 79 E 5 7 30.14 1021 9 14 0.00 0.00
7:59 pm 19:59 Cloudy 79 26.1 73 22.8 82 82 ENE 7 11 30.15 1021 9 14 0.00 0.00
8:59 pm 20:59 Cloudy with Light Rain 79 26.1 73 22.8 82 82 ENE 7 11 30.14 1021 9 14 0.00 0.00
9:59 pm 21:59 Cloudy with Light Rain 79 26.1 73 22.8 82 82 E 5 7 30.16 1021 10 16 0.00 0.00
10:59 pm 22:59 Cloudy with Light Rain 78 25.6 72 22.2 82 82 E 7 11 30.15 1021 9 14 0.00 0.00
11:59 pm 23:59 Cloudy 78 25.6 72 22.2 82 82 E 7 11 30.15 1021 9 14 0.00 0.00

Powered by AerisWeather